[[{"header":{"parameterUnit":"m.s-1","parameterCategory":1,"la1":30.2991,"la2":30.254,"lo1":-89.0895,"lo2":-89.0444,"dy":0.0017,"dx":0.0017,"nx":28,"ny":28,"refTime":"2023-03-13T21:00:00:Z","depth":0,"parameterNumber":2,"parameterNumberName":"U-component_of_WINDS"},"data":[0,0,0,0,0,0,0,0,0,0,0,0,0,0,0,0,0,0,0,0,0,0,0,0,0,0,0,0,0,0,0,0,0,0,0,0,0,0,0,0,0,0,0,0,0,0,0,0,0,0,0,0,0,0,0,0,0,0,-4.387,-4.387,0,-4.389,-4.389,-4.3891,-4.3746,-4.3742,-4.3738,-4.3734,-4.3756,-4.3761,-4.3765,0,0,0,0,0,0,0,0,0,0,0,0,0,-4.3706,-4.371,-4.387,-4.387,-4.387,-4.389,-4.389,-4.3891,-4.3747,-4.3742,-4.3737,-4.3733,-4.3755,-4.376,-4.3765,0,0,0,0,0,0,0,0,0,0,0,0,0,-4.3757,-4.3711,-4.387,-4.3801,-4.3795,-4.389,-4.389,-4.3891,-4.3748,-4.3742,-4.3736,-4.373,-4.3753,-4.376,-4.3766,-4.3928,0,0,-4.3786,-4.3789,0,0,0,0,0,0,0,0,-4.3754,-4.3763,-4.3811,-4.3806,-4.3799,-4.3809,-4.384,-4.3903,-4.375,-4.3766,-4.3734,-4.3727,-4.3779,-4.3783,-4.38,-4.3929,-4.393,-4.3787,-4.3791,-4.3793,-4.3795,0,0,0,0,0,0,0,-4.3751,-4.3761,-4.3878,-4.3812,-4.3805,-4.3769,-4.3769,-4.3852,-4.3806,-4.3764,-4.3754,-4.3758,-4.3775,-4.3794,-4.38,-4.393,-4.3786,-4.3792,-4.3796,-4.3799,-4.4192,-4.4198,0,0,0,0,0,0,-4.3756,-4.3759,-4.3877,-4.3878,-4.3761,-4.3777,-4.3777,-4.3812,-4.3805,-4.3798,-4.3763,-4.3751,-4.3786,-4.3792,-4.38,-4.3988,-4.3793,-4.3799,-4.3803,-4.4185,-4.4193,-4.42,0,0,0,0,0,0,-4.3754,-4.3768,-4.3876,-4.3816,-4.3827,-4.3786,-4.3827,-4.3816,-4.3835,-4.3804,-4.3796,-4.3792,-4.3782,-4.3791,-4.3897,-4.3987,-4.3802,-4.3808,-4.4178,-4.4188,-4.4197,-4.4367,0,0,0,0,0,0,-4.3749,-4.3768,-4.383,-4.3819,-4.3831,-4.3974,-4.3832,-4.3821,-4.3847,-4.3832,-4.3829,-4.3822,-4.3777,-4.3888,-4.3903,-4.3992,-4.3813,-4.4169,-4.4182,-4.4194,-4.4353,-4.4381,-4.4405,0,0,0,0,0,-4.3744,-4.3877,-4.3833,-4.3848,-4.3907,-4.3979,-4.3986,-4.3931,-4.3855,-4.3916,-4.3896,-4.3822,-4.3975,-4.39,-4.3916,-4.4009,-4.4163,-4.4178,-4.4193,-4.4341,-4.4375,-4.4404,0,0,0,0,0,0,-4.39,-4.3874,-4.3826,-4.3959,-4.3973,-4.3955,-4.403,-4.397,-4.4005,-4.3989,-4.392,-4.3921,-4.4038,-4.4034,-4.3951,-4.4164,-4.4055,-4.4074,-4.4163,-4.4195,-4.4221,-4.4219,-4.3819,0,0,0,0,0,-4.395,-4.4011,-4.3985,-4.4106,-4.4115,-4.4072,-4.4101,-4.4058,-4.4069,-4.4074,-4.4061,-4.4075,-4.4125,-4.416,-4.4205,-4.4352,-4.4348,-4.4423,-4.4449,-4.4471,-4.4487,-4.4563,-4.4595,-4.4248,-4.4248,-4.4248,0,0,-4.4054,-4.4048,-4.4091,-4.4137,-4.4142,-4.4206,-4.4077,-4.4151,-4.4198,-4.4085,-4.4184,-4.4176,-4.4186,-4.4313,-4.4368,-4.4313,-4.4583,-4.4489,-4.4507,-4.4512,-4.4581,-4.4614,-4.4644,-4.4258,-4.4256,-4.4255,0,0,-4.4276,-4.4278,-4.4377,-4.4385,-4.4394,-4.4364,-4.4389,-4.438,-4.437,-4.4468,-4.4384,-4.4439,-4.4528,-4.4538,-4.4555,-4.478,-4.4713,-4.4797,-4.4933,-4.5008,-4.5035,-4.5059,-4.5138,-4.5167,-4.4814,-4.4814,-4.4814,0,-4.4404,-4.4498,-4.4436,-4.4515,-4.4538,-4.4438,-4.4538,-4.4548,-4.4572,-4.459,-4.4527,-4.4636,-4.4636,-4.4763,-4.4818,-4.4835,-4.486,-4.4796,-4.5036,-4.5059,-4.5081,-4.5155,-4.5185,-4.4824,-4.4823,-4.4822,-4.4821,0,-4.4654,-4.472,-4.4799,-4.4824,-4.4855,-4.4945,-4.4896,-4.4936,-4.489,-4.4867,-4.4967,-4.4964,-4.5005,-4.5033,-4.4989,-4.5154,-4.5119,-4.5048,-4.4937,-4.5125,-4.5193,-4.5222,-4.4838,-4.4835,-4.4832,-4.4829,0,0,-4.4975,-4.4963,-4.4994,-4.5003,-4.5005,-4.5055,-4.5139,-4.5179,-4.5214,-4.5234,-4.5302,-4.5379,-4.5313,-4.5332,-4.5289,-4.5355,-4.5531,-4.5275,-4.5274,-4.5321,-4.5711,-4.5763,-4.5797,-4.5487,-4.5493,-4.5497,-4.5709,0,-4.519,-4.5333,-4.528,-4.5427,-4.5486,-4.5392,-4.5465,-4.5474,-4.5455,-4.5503,-4.5481,-4.5536,-4.5445,-4.5456,-4.5517,-4.5497,-4.5608,-4.5481,-4.5549,-4.5553,-4.5548,-4.5833,-4.5889,-4.609,-4.5736,-4.574,-4.5744,0,-4.546,-4.549,-4.5643,-4.5633,-4.5656,-4.5723,-4.5755,-4.5802,-4.581,-4.5791,-4.5813,-4.5755,-4.5836,-4.5726,-4.5837,-4.5752,-4.5777,-4.5771,-4.5777,-4.5781,-4.5659,-4.5843,-4.6153,-4.6183,-4.5786,-4.5782,-4.5779,0,-4.5677,-4.5756,-4.5856,-4.5867,-4.5859,-4.5908,-4.5907,-4.5909,-4.5937,-4.5965,-4.5981,-4.602,-4.604,-4.607,-4.6024,-4.5948,-4.6141,-4.6028,-4.6127,-4.6128,-4.6171,-4.6168,-4.6488,-4.619,-4.6189,-4.6189,-4.6188,0,-4.5922,-4.6019,-4.5953,-4.6015,-4.612,-4.6059,-4.6164,-4.6153,-4.6156,-4.6213,-4.6135,-4.6191,-4.6126,-4.6176,-4.614,-4.6236,-4.6247,-4.6233,-4.6222,-4.624,-4.6241,-4.6254,-4.6238,-4.6197,-4.6195,-4.6193,-4.6192,0,-4.6182,-4.6142,-4.6245,-4.6229,-4.6227,-4.6305,-4.6291,-4.6347,-4.6322,-4.6396,-4.641,-4.6371,-4.6425,-4.6382,-4.6436,-4.6411,-4.6538,-4.6509,-4.6536,-4.6527,-4.6628,-4.6618,-4.6965,-4.7007,-4.6684,-4.6687,-4.669,0,-4.6341,-4.6412,-4.6404,-4.6436,-4.644,-4.6494,-4.6521,-4.6463,-4.6494,-4.6509,-4.6563,-4.6611,-4.6645,-4.6737,-4.6713,-4.6753,-4.6722,-4.6841,-4.6728,-4.6743,-4.6722,-4.6718,-4.6724,-4.6864,-4.6868,-4.6871,-4.6873,0,-4.6625,-4.6602,-4.6643,-4.6679,-4.6713,-4.6738,-4.6756,-4.6788,-4.6728,-4.6768,-4.6822,-4.6849,-4.6903,-4.6951,-4.6982,-4.6981,-4.6918,-4.691,-4.6934,-4.6952,-4.6964,-4.6957,-4.6597,-4.6901,-4.6899,-4.6897,-4.6895,-4.6894,-4.6838,-4.6897,-4.6899,-4.6948,-4.6956,-4.6975,-4.7026,-4.7008,-4.7052,-4.709,-4.7054,-4.7119,-4.7124,-4.716,-4.7167,-4.7216,-4.7167,-4.7204,-4.7212,-4.7222,-4.7236,-4.6957,-4.7222,-4.7222,-4.7221,-4.722,-4.7219,0,-4.7117,-4.7114,-4.7159,-4.7187,-4.7226,-4.7163,-4.718,-4.7216,-4.7274,-4.7284,-4.732,-4.7382,-4.7427,-4.7407,-4.7447,-4.7491,-4.7463,-4.7503,-4.7499,-4.7499,-4.7278,-4.7252,-4.7525,-4.7525,-4.7525,-4.7525,-4.7525,-4.7525,-4.7267,-4.7362,-4.7339,-4.7437,-4.7433,-4.7496,-4.7511,-4.7528,-4.7535,-4.7608,-4.7645,-4.7632,-4.7629,-4.7668,-4.7707,-4.77,-4.7718,-4.7769,-4.7751,-4.7545,-4.7515,-4.7486,-4.7461,-4.7773,-4.7774,-4.7967,-4.7969,-4.797]},{"header":{"parameterUnit":"m.s-1","parameterCategory":1,"la1":30.2991,"la2":30.254,"lo1":-89.0895,"lo2":-89.0444,"dy":0.0017,"dx":0.0017,"nx":28,"ny":28,"refTime":"2023-03-13T21:00:00:Z","depth":0,"parameterNumber":3,"parameterNumberName":"V-component_of_WINDS"},"data":[0,0,0,0,0,0,0,0,0,0,0,0,0,0,0,0,0,0,0,0,0,0,0,0,0,0,0,0,0,0,0,0,0,0,0,0,0,0,0,0,0,0,0,0,0,0,0,0,0,0,0,0,0,0,0,0,0,0,-5.0452,-5.0453,0,-5.0539,-5.054,-5.0541,-5.0478,-5.0475,-5.0472,-5.047,-5.0555,-5.056,-5.0565,0,0,0,0,0,0,0,0,0,0,0,0,0,-5.0225,-5.023,-5.0452,-5.0453,-5.0454,-5.0539,-5.054,-5.0541,-5.0478,-5.0475,-5.0472,-5.0469,-5.0554,-5.0559,-5.0565,0,0,0,0,0,0,0,0,0,0,0,0,0,-5.0319,-5.0231,-5.0452,-5.0433,-5.0432,-5.0539,-5.054,-5.0542,-5.0479,-5.0475,-5.0471,-5.0467,-5.0552,-5.0559,-5.0566,-5.0695,0,0,-5.0588,-5.0592,0,0,0,0,0,0,0,0,-5.0314,-5.0327,-5.0435,-5.0434,-5.0434,-5.0493,-5.0492,-5.0593,-5.048,-5.0461,-5.047,-5.0465,-5.0538,-5.0546,-5.0571,-5.0699,-5.0702,-5.0589,-5.0593,-5.0597,-5.0599,0,0,0,0,0,0,0,-5.0307,-5.0323,-5.0486,-5.0436,-5.0436,-5.0418,-5.0427,-5.051,-5.0522,-5.0463,-5.0458,-5.047,-5.0537,-5.0565,-5.0573,-5.0704,-5.0589,-5.0595,-5.06,-5.0603,-5.0938,-5.0942,0,0,0,0,0,0,-5.0303,-5.0318,-5.0483,-5.0489,-5.0362,-5.0426,-5.0436,-5.0478,-5.0521,-5.0523,-5.0473,-5.0466,-5.0554,-5.0565,-5.0576,-5.0727,-5.0597,-5.0603,-5.0608,-5.0933,-5.0939,-5.0944,0,0,0,0,0,0,-5.0299,-5.0319,-5.048,-5.0402,-5.0422,-5.0434,-5.0483,-5.0482,-5.051,-5.0529,-5.053,-5.05,-5.0551,-5.0565,-5.0665,-5.0729,-5.0607,-5.0613,-5.0928,-5.0935,-5.0941,-5.1033,0,0,0,0,0,0,-5.0292,-5.0317,-5.0368,-5.0404,-5.0426,-5.057,-5.0487,-5.0487,-5.0523,-5.0515,-5.0554,-5.0556,-5.0549,-5.0655,-5.0673,-5.0737,-5.0619,-5.0922,-5.0931,-5.0939,-5.1024,-5.1042,-5.1057,0,0,0,0,0,-5.0285,-5.0389,-5.0371,-5.0391,-5.049,-5.0574,-5.0586,-5.0577,-5.0529,-5.0578,-5.059,-5.0555,-5.072,-5.0665,-5.0685,-5.0753,-5.0918,-5.0929,-5.0939,-5.1016,-5.1038,-5.1057,0,0,0,0,0,0,-5.0359,-5.0394,-5.0373,-5.0494,-5.0531,-5.0563,-5.0625,-5.06,-5.0651,-5.0641,-5.0626,-5.0636,-5.074,-5.0756,-5.0695,-5.0878,-5.0811,-5.0826,-5.0864,-5.0884,-5.0901,-5.0894,-5.0625,0,0,0,0,0,-5.039,-5.0457,-5.0483,-5.0586,-5.0607,-5.0613,-5.0649,-5.0639,-5.0677,-5.0692,-5.0711,-5.0748,-5.0807,-5.0847,-5.0903,-5.1026,-5.1032,-5.1082,-5.1099,-5.1112,-5.1125,-5.1189,-5.1211,-5.0977,-5.0977,-5.0977,0,0,-5.0453,-5.0481,-5.0524,-5.0602,-5.063,-5.0698,-5.0627,-5.0702,-5.0751,-5.0703,-5.0798,-5.0813,-5.0853,-5.0965,-5.1015,-5.0982,-5.119,-5.1125,-5.1136,-5.1141,-5.1201,-5.1223,-5.1243,-5.0984,-5.0983,-5.0982,0,0,-5.0604,-5.0632,-5.0721,-5.075,-5.0794,-5.0797,-5.0818,-5.0854,-5.0862,-5.0958,-5.0922,-5.098,-5.1084,-5.1113,-5.1142,-5.1302,-5.1271,-5.132,-5.1406,-5.1469,-5.1487,-5.1503,-5.1558,-5.1579,-5.1333,-5.1333,-5.1333,0,-5.0677,-5.0779,-5.0769,-5.0847,-5.0881,-5.0841,-5.0929,-5.0958,-5.1017,-5.1041,-5.1003,-5.1132,-5.1156,-5.1273,-5.1312,-5.1337,-5.1359,-5.1315,-5.1486,-5.1502,-5.1517,-5.1569,-5.159,-5.1339,-5.1338,-5.1337,-5.1337,0,-5.0866,-5.0937,-5.1003,-5.1062,-5.1104,-5.1187,-5.1187,-5.123,-5.1216,-5.1223,-5.1319,-5.1347,-5.1407,-5.1434,-5.1421,-5.1549,-5.1526,-5.1488,-5.142,-5.1545,-5.1594,-5.1614,-5.1347,-5.1345,-5.1343,-5.1342,0,0,-5.1066,-5.1117,-5.1142,-5.1167,-5.1212,-5.1266,-5.1345,-5.1405,-5.1442,-5.1484,-5.1549,-5.1637,-5.1601,-5.1633,-5.1623,-5.1678,-5.1801,-5.1632,-5.1633,-5.1661,-5.1941,-5.1969,-5.1992,-5.1781,-5.1785,-5.1788,-5.1937,0,-5.1217,-5.1357,-5.1349,-5.148,-5.1545,-5.1507,-5.1576,-5.161,-5.1618,-5.1673,-5.1681,-5.1743,-5.1692,-5.1711,-5.1764,-5.1775,-5.1856,-5.1764,-5.1839,-5.1842,-5.1829,-5.2018,-5.2048,-5.2188,-5.1956,-5.1959,-5.1962,0,-5.1412,-5.1461,-5.1599,-5.1632,-5.1659,-5.1722,-5.1775,-5.1828,-5.1865,-5.1866,-5.1903,-5.1882,-5.1961,-5.1892,-5.1998,-5.1935,-5.1966,-5.1975,-5.198,-5.1986,-5.1908,-5.2027,-5.2232,-5.2253,-5.1992,-5.199,-5.1988,0,-5.1541,-5.1642,-5.1737,-5.176,-5.1802,-5.1846,-5.1866,-5.1898,-5.1934,-5.198,-5.2003,-5.2058,-5.2087,-5.2129,-5.2123,-5.2074,-5.2231,-5.2162,-5.2232,-5.2233,-5.2266,-5.2264,-5.2478,-5.2289,-5.2288,-5.2288,-5.2288,0,-5.171,-5.1795,-5.1795,-5.1854,-5.1947,-5.1937,-5.2029,-5.2043,-5.2072,-5.2131,-5.2102,-5.2157,-5.2147,-5.2202,-5.2198,-5.2285,-5.2299,-5.2301,-5.2299,-5.2303,-5.2303,-5.2322,-5.2311,-5.2294,-5.2292,-5.2291,-5.229,0,-5.187,-5.1874,-5.1975,-5.2006,-5.2016,-5.2083,-5.2109,-5.2163,-5.2169,-5.2243,-5.226,-5.2269,-5.2331,-5.233,-5.2402,-5.2399,-5.2506,-5.2493,-5.2494,-5.249,-5.2561,-5.2553,-5.2793,-5.2823,-5.2616,-5.2618,-5.262,0,-5.1977,-5.2041,-5.208,-5.2118,-5.214,-5.2202,-5.2238,-5.223,-5.2268,-5.2314,-5.2362,-5.2423,-5.2471,-5.2573,-5.2584,-5.2638,-5.2625,-5.2705,-5.2633,-5.2634,-5.2624,-5.2619,-5.2625,-5.2719,-5.2721,-5.2723,-5.2724,0,-5.2165,-5.2163,-5.2218,-5.2273,-5.2318,-5.2361,-5.24,-5.2432,-5.2428,-5.2473,-5.2537,-5.2574,-5.2647,-5.2707,-5.2758,-5.2776,-5.2749,-5.2747,-5.2766,-5.277,-5.2767,-5.2768,-5.2531,-5.2742,-5.274,-5.2739,-5.2738,-5.2737,-5.23,-5.2355,-5.2391,-5.2452,-5.2481,-5.2518,-5.257,-5.2582,-5.2636,-5.2695,-5.2687,-5.2758,-5.2791,-5.2858,-5.2881,-5.2935,-5.2906,-5.2934,-5.2941,-5.2948,-5.2955,-5.276,-5.2944,-5.2944,-5.2944,-5.2943,-5.2943,0,-5.2485,-5.2506,-5.2563,-5.2619,-5.2666,-5.2639,-5.268,-5.2721,-5.2785,-5.2819,-5.2867,-5.2939,-5.2997,-5.3013,-5.3068,-5.3108,-5.3097,-5.3122,-5.3118,-5.3123,-5.2978,-5.2955,-5.313,-5.313,-5.313,-5.313,-5.313,-5.313,-5.2587,-5.2678,-5.2681,-5.2785,-5.2804,-5.2875,-5.2901,-5.2934,-5.2961,-5.3044,-5.3092,-5.3103,-5.3129,-5.3185,-5.3236,-5.3239,-5.3259,-5.329,-5.3288,-5.3152,-5.3133,-5.3115,-5.3093,-5.3295,-5.3295,-5.3427,-5.3428,-5.3429]}]]